Voltar ao catálogo

AGILA 1

PALAPA B2P

AtivoComunicaçõesGEO
NORAD 17706·PAYLOAD·🇵🇭 Philippines

Lançado Mar 20, 1987 de Cape Canaveral Space Force Station

Loading…

TLE

AtualizadoSource: Space-Track

Época: Sep 14, 2026, 09:46 UTC

1 17706U 87029A   26257.40705137  .00000055  00000-0  00000-0 0  9996
2 17706  14.3345 347.4973 0000622  44.4538 339.2725  0.99905665 43421

Acompanhe AGILA 1 em tempo real com AllMySat

Download on the App Store